Flag for U.S.A. Weather past 2 weeks in Huntsville, Alabama, U.S.A.

Now
72 °F

Passing clouds.


Feels Like: 77 °F
Forecast: 47 / 72 °F
Wind: 8 mph from Northeast

Location: Huntsville International / Jones Field

Current Time: Oct 24, 2014 at 1:23:16 PM

Latest Report: Oct 24, 2014 at 12:53 PM


Visibility: 10 mi

Pressure: 30.07 "Hg

Humidity: 33%

Dew point: 41 °F

Location of HuntsvilleLocation

Historic Weather in Huntsville — Graph

°F

Huntsville temperature yesterday

Maximum temperature yesterday: 71 °F (at 2:53 PM)
Minimum temperature yesterday: 43 °F (at 6:53 AM)
Average temperature yesterday: 56 °F

Past Weeks' High & Low Weather Summary

 TemperatureHumidityPressure
High87 °F (Oct 9, 2:53 PM)100% (Oct 12, 1:53 PM)30.20 "Hg (Oct 12, 1:53 PM)
Low43 °F (Oct 23, 6:53 AM)30% (Oct 23, 3:53 PM)29.64 "Hg (Oct 14, 3:53 AM)
Average64 °F72%29.99 "Hg
* Reported Oct 9 11:53 AM — Oct 24 11:53 AM, Huntsville, Weather by CustomWeather, © 2014

Note: Actual official high and low records may vary slightly from our data, if they occured in-between our weather recording intervals... More about our weather records

Advertising

Huntsville weather history for previous 24 hours

 ConditionsComfort  
Time TempWeatherWind HumidityBarometerVisibility
11:53 AM
Oct 24
69 °FPassing clouds.3 mph38%30.09 "Hg10 mi
10:53 AM66 °FPassing clouds.5 mph47%30.10 "Hg10 mi
9:53 AM62 °FPassing clouds.3 mph56%30.12 "Hg10 mi
8:53 AM56 °FPassing clouds.8 mph70%30.13 "Hg10 mi
7:53 AM50 °FPassing clouds.5 mph83%30.11 "Hg10 mi
6:53 AM49 °FPassing clouds.7 mph84%30.10 "Hg10 mi
5:53 AM49 °FPartly cloudy.5 mph84%30.10 "Hg10 mi
4:53 AM52 °FClear.No wind77%30.09 "Hg10 mi
3:53 AM53 °FPassing clouds.7 mph74%30.06 "Hg10 mi
2:53 AM53 °FClear.3 mph74%30.06 "Hg10 mi
1:53 AM53 °FClear.No wind72%30.08 "Hg10 mi
12:53 AM54 °FClear.No wind69%30.09 "Hg10 mi
11:53 PM
Oct 23
54 °FPassing clouds.7 mph67%30.09 "Hg10 mi
10:53 PM54 °FHigh level clouds.3 mph67%30.09 "Hg10 mi
9:53 PM58 °FHigh level clouds.7 mph58%30.09 "Hg10 mi
8:53 PM57 °FHigh level clouds.7 mph60%30.09 "Hg10 mi
7:53 PM56 °FHigh level clouds.6 mph62%30.09 "Hg10 mi
6:53 PM59 °FHigh level clouds.No wind56%30.08 "Hg10 mi
5:53 PM64 °FHigh level clouds.7 mph41%30.07 "Hg10 mi
4:53 PM69 °FPartly sunny.6 mph31%30.06 "Hg10 mi
3:53 PM70 °FPartly sunny.3 mph30%30.06 "Hg10 mi
2:53 PM71 °FPartly sunny.5 mph31%30.07 "Hg10 mi
1:53 PM68 °FPartly sunny.5 mph38%30.09 "Hg10 mi
Weather by CustomWeather, © 2014

See weather overviewHow to use our weather pages